Tracking 28790 objects as of 19-Apr-2024
HD Live streaming from Space Station
objects crossing your sky now

METEOR 2-8 DEB

Track METEOR 2-8 DEB now!
10-day predictions


NORAD ID: 36349
Int'l Code: 1982-025AK
Perigee: 801.1 km
Apogee: 829.7 km
Inclination: 82.5 °
Period: 101.0 minutes
Semi major axis: 7186 km
RCS: 0.0012 m2 (small)
Launch date: March 25, 1982
Source: Commonwealth of Independent States (former USSR) (CIS)
Launch site: PLESETSK MISSILE AND SPACE COMPLEX (PKMTR)

Note: This is SATELLITE DEBRIS
Your satellite tracking list
Your tracking list is empty




NASA's NSSDC Master Catalog

Two Line Element Set (TLE):
1 36349U 82025AK  24109.68278361  .00015074  00000-0  64045-2 0  9997
2 36349  82.5048  99.8151 0019864  85.1639 275.1811 14.25072055 93678
Source of the keplerian elements: AFSPC